SCP
0 0 0 0 0 0 0 0 0 0 0 0 1 1 0 0 0 0 0 0 0 0 0 0 0 0 0 0 0 0 0 0 0 0 0 0 0 0
0 0 0 0 0 0 0 0 0 0 0 0 1 1 1 0 0 0 0 0 0 0 0 0 0 0 0 0 0 0 0 0 0 0 0 0 0 0
0 0 0 0 0 0 0 0 0 0 0 0 1 1 1 0 0 0 0 0 0 0 0 0 0 0 0 0 0 0 0 0 0 0 0 0 0 0
0 0 0 0 0 0 0 0 0 0 0 1 1 1 1 0 0 0 0 0 0 0 0 0 0 0 0 0 0 0 0 0 0 0 0 0 0 0
0 0 0 0 0 0 0 0 0 0 0 1 1 1 1 0 0 0 0 0 0 0 0 0 0 0 0 0 0 0 0 0 0 0 0 0 0 0
0 0 0 0 0 0 0 0 0 0 0 1 1 1 1 0 0 0 0 0 0 0 0 0 0 0 0 0 0 0 0 0 0 0 0 0 0 0
0 0 0 0 0 0 0 0 0 0 0 0 1 1 1 0 0 0 0 0 0 0 0 0 0 0 0 0 0 0 0 0 0 0 0 0 0 0
0 0 0 0 0 0 0 0 0 0 0 0 0 0 0 0 0 0 0 0 0 0 0 0 0 0 0 0 0 0 0 0 0 0 0 0 0 0
0 0 0 0 0 0 0 0 0 0 0 0 0 0 0 0 0 0 0 0 0 0 0 0 0 0 0 0 0 0 0 0 0 0 0 0 0 0
0 0 0 0 0 0 0 0 0 0 0 0 0 0 0 0 0 0 0 0 0 0 0 0 0 0 0 0 0 0 0 0 0 0 0 0 0 0
0 0 0 0 0 0 0 0 0 0 0 0 0 0 0 0 0 0 0 0 0 0 0 0 0 0 0 0 0 0 0 0 0 0 0 0 0 0
0 0 0 0 0 0 0 0 0 0 0 0 0 0 0 0 0 0 0 0 0 0 0 0 0 0 0 0 0 0 0 0 0 0 0 0 0 0
0 0 0 0 0 0 0 0 0 0 0 0 0 0 0 0 0 0 0 0 0 0 0 0 0 0 0 0 0 0 0 0 0 0 0 0 0 0
0 0 0 0 0 0 0 0 0 0 0 0 0 0 0 0 0 0 0 0 0 0 0 0 0 0 0 0 0 0 0 0 0 0 0 0 0 0
0 0 0 0 0 0 0 0 0 0 0 0 0 0 0 0 0 0 0 0 0 0 0 0 0 0 0 0 0 0 0 0 0 0 0 0 0 0
0 0 0 0 0 0 0 0 0 0 0 0 0 0 0 0 0 0 0 0 0 0 0 0 0 0 0 0 0 0 0 0 0 0 0 0 0 0
0 0 0 0 0 0 0 0 0 0 0 0 0 0 0 0 0 0 0 0 0 0 0 0 0 0 0 0 0 0 0 0 0 0 0 0 0 0
0 0 0 0 0 0 0 0 0 0 0 0 0 0 0 0 0 0 0 0 0 0 0 0 0 0 0 0 0 0 0 0 0 0 0 0 0 0
0 0 0 0 0 0 0 0 0 0 0 0 0 0 0 0 0 0 0 0 0 0 0 0 0 0 0 0 0 0 0 0 0 0 0 0 0 0
0 0 0 0 0 0 0 0 0 0 0 0 0 0 0 0 0 0 0 0 0 0 0 0 0 0 0 0 0 0 0 0 0 0 0 0 0 0
0 0 0 0 0 0 0 0 0 0 0 0 0 0 0 0 0 0 0 0 0 0 0 0 0 0 0 0 0 0 0 0 0 0 0 0 0 0
0 0 0 0 0 0 0 0 0 0 0 0 0 0 0 0 0 0 0 0 0 0 0 0 0 0 0 0 0 0 0 0 0 0 0 0 0 0
0 0 0 0 0 0 0 0 0 0 0 0 0 0 0 0 0 0 0 0 0 0 0 0 0 0 0 0 0 0 0 0 0 0 0 0 0 0
Wind_Speed
4 4 3 3 2 2 3 3 3 2 3 2 1 2 2 2 2 2 2 3 4 4 5 6 6 7 7 8 9 9 10 11 11 13 13 14 14 14
3 4 4 3 2 2 3 3 2 3 2 1 1 1 1 1 2 2 2 3 4 4 5 6 6 6 7 7 8 9 10 11 11 13 13 13 13 14
3 4 4 3 3 3 3 2 2 2 3 2 1 1 1 1 1 1 1 1 2 4 5 6 6 6 6 7 8 9 10 10 11 11 12 13 13 14
4 4 4 3 4 3 3 3 2 2 3 2 1 1 2 2 2 1 1 1 2 4 5 6 6 5 6 7 8 8 9 9 10 11 12 12 13 14
4 4 4 4 4 3 3 3 2 2 2 2 2 1 1 1 1 1 1 1 2 3 4 5 5 5 6 7 7 8 9 9 10 11 11 12 13 13
3 4 4 5 5 4 3 3 3 2 2 2 2 1 1 1 1 1 1 1 2 2 3 4 4 6 6 7 7 8 9 9 10 11 11 11 12 13
2 3 4 4 5 4 3 3 4 3 2 2 2 1 1 1 1 1 1 2 2 1 1 2 3 2 3 5 6 7 8 9 9 10 11 11 12 13
3 2 2 3 4 4 4 4 5 4 4 3 2 3 3 2 1 1 1 1 2 1 1 3 2 2 3 2 5 8 8 8 9 10 11 11 12 12
3 2 2 2 2 2 2 2 3 5 5 4 3 3 3 3 3 2 2 2 3 2 1 3 2 3 3 4 7 7 7 8 9 10 11 11 12 12
3 3 3 2 2 3 2 1 1 2 3 3 3 3 3 3 4 3 2 1 1 1 1 2 2 2 3 3 6 7 8 8 9 10 10 11 12 12
1 2 3 3 4 4 3 3 1 1 1 1 2 2 2 2 2 2 1 1 2 2 1 1 1 2 3 3 4 7 7 8 9 10 11 11 11 11
1 1 2 3 4 4 4 4 3 1 1 1 1 2 1 1 1 2 3 2 1 1 1 1 1 2 3 2 2 3 4 6 9 10 11 11 11 6
1 1 1 3 3 4 3 3 3 2 2 1 0 1 1 1 0 1 1 2 2 2 2 1 1 1 1 3 3 2 2 3 4 6 8 10 10 8
1 1 1 1 1 2 2 2 2 2 2 1 1 0 1 1 1 1 1 0 1 3 3 2 1 1 1 2 3 3 3 3 3 3 4 8 8 10
1 1 0 1 1 1 2 3 2 2 2 2 1 1 1 1 1 0 1 1 2 1 1 1 1 1 1 2 2 3 3 3 3 3 4 4 4 4
1 1 2 2 1 1 2 1 1 1 2 2 1 0 1 1 1 0 0 1 2 2 1 1 1 1 1 2 2 3 3 3 3 4 4 4 4 3
0 1 1 1 1 1 1 1 1 1 1 1 1 1 0 0 1 1 0 0 0 1 2 2 1 1 1 2 2 2 3 3 3 4 4 5 4 4
1 1 1 1 1 1 0 1 0 0 0 1 1 1 0 0 1 1 0 0 0 0 1 1 2 2 2 2 1 2 2 3 3 4 3 4 5 4
0 1 1 1 1 0 0 0 0 0 0 1 1 0 0 0 0 0 0 1 1 1 1 1 1 1 2 3 3 1 2 3 3 3 3 3 5 6
0 0 1 1 1 1 0 0 0 0 0 0 0 1 1 1 0 0 0 0 0 1 1 1 1 1 1 2 2 3 4 3 3 4 4 4 4 6
1 1 0 0 0 0 0 0 1 1 0 0 0 1 1 1 0 1 1 0 0 0 1 1 2 3 1 0 1 2 3 4 4 3 4 4 4 4
1 1 1 0 0 0 0 0 0 0 0 0 0 1 1 1 1 1 1 1 1 0 1 1 2 2 1 1 2 3 4 4 5 6 5 3 2 3
1 1 1 1 0 0 0 0 0 1 1 1 1 0 0 0 0 1 1 1 1 0 0 1 1 1 1 1 1 2 3 4 4 4 4 7 6 6
Wind_Direction
208 206 203 204 197 197 191 192 184 208 244 234 228 226 212 204 247 234 235 270 296 305 309 311 312 314 316 320 321 322 323 324 325 323 321 321 323 325
207 206 210 203 190 195 199 205 201 194 228 237 240 259 254 269 257 234 244 287 299 302 304 310 312 312 313 317 320 322 322 322 324 323 323 325 327 327
207 204 217 202 194 199 189 189 200 189 212 262 261 262 252 249 266 253 247 245 272 303 304 309 310 307 308 318 321 321 321 323 326 328 328 328 328 327
210 205 216 204 198 196 187 187 197 207 194 217 254 246 251 243 246 263 285 287 267 294 303 313 316 313 312 316 320 325 328 330 331 330 331 332 329 327
215 209 212 201 205 199 194 190 193 207 196 184 226 248 260 244 251 288 287 286 292 298 305 313 320 321 321 324 329 330 330 329 329 330 332 331 329 327
214 211 211 203 199 195 196 191 185 187 184 181 205 235 250 241 180 260 310 309 312 317 311 314 319 327 328 331 329 329 328 328 329 332 332 330 328 326
214 219 219 213 209 202 196 186 181 186 191 200 206 219 240 221 232 234 286 322 313 296 314 314 316 318 320 318 321 323 323 325 327 329 330 328 327 325
213 217 222 211 212 211 209 203 195 193 201 207 218 223 234 226 217 230 264 318 300 293 325 307 308 298 299 292 305 314 317 321 326 328 328 328 327 326
208 203 218 216 206 195 204 218 226 228 220 212 212 229 226 213 202 219 229 254 268 267 303 290 296 288 292 296 306 311 318 324 328 329 329 329 329 328
210 201 204 208 204 185 172 186 244 251 248 231 220 225 233 214 201 204 206 245 298 277 240 272 287 292 302 297 303 312 321 327 330 332 333 332 331 330
227 214 208 202 202 183 168 184 226 272 316 278 277 265 253 246 192 147 162 190 293 277 231 232 276 309 298 289 303 319 325 331 334 335 335 335 334 333
218 238 235 220 205 193 179 179 199 223 155 63 18 9 358 277 244 193 184 196 246 261 226 208 272 325 312 293 304 315 321 324 331 334 335 335 337 335
223 230 251 239 212 200 190 186 198 179 159 159 147 21 355 336 269 246 212 198 214 239 216 193 243 258 260 298 306 308 314 316 322 326 332 335 337 338
237 238 219 222 197 191 194 173 157 134 134 137 126 209 303 326 320 307 309 304 239 229 225 216 219 231 268 296 298 311 316 316 323 323 325 330 333 333
255 270 236 154 155 162 151 141 133 134 138 139 178 257 294 301 334 3 21 24 15 335 243 235 224 236 252 270 291 307 315 312 321 326 323 322 319 324
18 71 63 73 86 99 116 119 129 154 150 164 187 240 354 0 349 349 357 13 21 1 357 350 302 201 258 285 279 297 306 306 320 322 316 311 312 312
20 83 69 80 75 73 73 80 96 106 103 107 147 143 124 357 324 325 333 15 56 343 343 354 359 12 245 258 292 299 305 306 304 317 321 317 312 315
4 134 135 143 148 140 95 52 66 99 124 144 155 153 191 235 318 334 4 77 81 341 336 331 346 359 359 340 259 283 299 302 312 319 319 314 313 317
37 152 177 181 178 164 168 183 296 302 188 186 185 190 216 244 313 343 45 43 25 350 336 339 351 6 346 326 320 322 304 311 318 318 316 306 301 307
35 204 204 195 179 173 188 244 22 295 223 233 210 202 210 203 200 200 171 128 355 341 345 349 351 318 263 267 282 306 322 318 314 313 314 306 294 296
344 321 267 227 200 181 192 191 194 211 239 230 223 212 212 205 210 203 186 182 324 318 316 316 310 320 314 337 325 316 316 318 316 309 312 319 325 333
331 322 321 314 253 197 193 185 193 227 219 245 250 239 226 214 190 184 183 184 218 264 299 317 331 351 18 9 319 314 321 328 333 336 329 320 314 326
323 321 327 328 312 289 224 210 232 257 260 269 253 247 210 161 173 182 174 168 163 147 356 341 351 9 6 344 321 319 328 335 341 350 344 342 338 317